• In Uzbekistan
  • List of Countries
  • For 7 days
  • Water Temperature
  • Weather Map
  • Weather Widgets
  • user-avatar
    Login

    Hourly Weather Santiago del Estero

    Today, 29 January, Wednesday

    Time Temperature Precipitation Wind Pressure Humidity
    00:00 +29°C° 0 mm 4 mps 736 mmHg 52%
    01:00 +28°C° 0 mm 4 mps 735 mmHg 56%
    02:00 +28°C° 0 mm 3 mps 735 mmHg 59%
    03:00 +27°C° 0 mm 3 mps 735 mmHg 61%
    04:00 +27°C° 0 mm 3 mps 735 mmHg 63%
    05:00 +26°C° 0 mm 3 mps 735 mmHg 65%
    06:00 +28°C° 0 mm 3 mps 736 mmHg 61%
    07:00 +29°C° 0 mm 3 mps 736 mmHg 56%
    08:00 +31°C° 0 mm 3 mps 737 mmHg 52%
    09:00 +33°C° 0 mm 3 mps 737 mmHg 47%
    10:00 +35°C° 0 mm 3 mps 738 mmHg 42%
    11:00 +37°C° 0 mm 3 mps 738 mmHg 37%
    12:00 +36°C° 0.4 mm 4 mps 738 mmHg 44%
    13:00 +34°C° 0.4 mm 6 mps 738 mmHg 50%
    14:00 +32°C° 0.4 mm 7 mps 737 mmHg 57%
    15:00 +30°C° 1.2 mm 7 mps 737 mmHg 61%
    16:00 +30°C° 1.2 mm 7 mps 738 mmHg 65%
    17:00 +29°C° 1.2 mm 7 mps 738 mmHg 69%
    18:00 +28°C° 0.6 mm 5 mps 739 mmHg 74%
    19:00 +27°C° 0.6 mm 3 mps 740 mmHg 78%
    20:00 +26°C° 0.6 mm 1 mps 741 mmHg 82%
    21:00 +25°C° 0.1 mm 2 mps 741 mmHg 83%
    22:00 +25°C° 0.1 mm 2 mps 741 mmHg 84%
    23:00 +25°C° 0.1 mm 2 mps 742 mmHg 85%

    Tomorrow, 30 January, Thursday

    Time Temperature Precipitation Wind Pressure Humidity
    00:00 +24°C° 0 mm 3 mps 742 mmHg 85%
    01:00 +24°C° 0 mm 3 mps 742 mmHg 86%
    02:00 +22°C° 0 mm 4 mps 741 mmHg 86%
    03:00 +22°C° 0 mm 4 mps 742 mmHg 87%
    04:00 +21°C° 0 mm 3 mps 742 mmHg 87%
    05:00 +21°C° 0 mm 3 mps 742 mmHg 87%
    06:00 +24°C° 0 mm 3 mps 743 mmHg 80%
    07:00 +25°C° 0 mm 4 mps 743 mmHg 72%
    08:00 +27°C° 0 mm 4 mps 744 mmHg 64%
    09:00 +29°C° 0 mm 4 mps 744 mmHg 56%
    10:00 +32°C° 0 mm 4 mps 744 mmHg 48%
    11:00 +34°C° 0 mm 4 mps 744 mmHg 40%
    12:00 +34°C° 0 mm 4 mps 743 mmHg 38%
    13:00 +35°C° 0 mm 4 mps 743 mmHg 36%
    14:00 +35°C° 0 mm 3 mps 742 mmHg 34%
    15:00 +35°C° 0 mm 3 mps 742 mmHg 33%
    16:00 +35°C° 0 mm 3 mps 741 mmHg 32%
    17:00 +35°C° 0 mm 3 mps 741 mmHg 31%
    18:00 +32°C° 0 mm 2 mps 741 mmHg 36%
    19:00 +31°C° 0 mm 2 mps 741 mmHg 40%
    20:00 +29°C° 0 mm 2 mps 741 mmHg 45%
    21:00 +28°C° 0 mm 2 mps 742 mmHg 48%
    22:00 +27°C° 0 mm 2 mps 742 mmHg 51%
    23:00 +26°C° 0 mm 2 mps 742 mmHg 55%

    Day after tomorrow, 31 January, Friday

    Time Temperature Precipitation Wind Pressure Humidity
    00:00 +25°C° 0 mm 2 mps 742 mmHg 56%
    01:00 +25°C° 0 mm 2 mps 742 mmHg 58%
    02:00 +24°C° 0 mm 2 mps 741 mmHg 60%
    03:00 +24°C° 0 mm 1 mps 741 mmHg 62%
    04:00 +24°C° 0 mm 1 mps 741 mmHg 65%
    05:00 +23°C° 0 mm 1 mps 741 mmHg 67%
    06:00 +25°C° 0 mm 1 mps 741 mmHg 62%
    07:00 +27°C° 0 mm 2 mps 742 mmHg 56%
    08:00 +29°C° 0 mm 2 mps 742 mmHg 51%
    09:00 +31°C° 0 mm 2 mps 742 mmHg 44%
    10:00 +34°C° 0 mm 2 mps 742 mmHg 38%
    11:00 +35°C° 0 mm 2 mps 742 mmHg 31%
    12:00 +36°C° 0 mm 2 mps 741 mmHg 28%
    13:00 +37°C° 0 mm 3 mps 740 mmHg 26%
    14:00 +38°C° 0 mm 3 mps 740 mmHg 23%
    15:00 +38°C° 0 mm 3 mps 739 mmHg 24%
    16:00 +38°C° 0 mm 3 mps 739 mmHg 24%
    17:00 +38°C° 0 mm 3 mps 738 mmHg 24%
    18:00 +36°C° 0 mm 3 mps 738 mmHg 29%
    19:00 +34°C° 0 mm 3 mps 739 mmHg 33%
    20:00 +30°C° 0 mm 3 mps 739 mmHg 38%
    21:00 +30°C° 0 mm 3 mps 739 mmHg 40%
    22:00 +29°C° 0 mm 3 mps 740 mmHg 42%
    23:00 +28°C° 0 mm 4 mps 740 mmHg 43%

    1 February, Saturday

    Time Temperature Precipitation Wind Pressure Humidity
    00:00 +28°C° 0 mm 3 mps 740 mmHg 47%
    01:00 +27°C° 0 mm 3 mps 739 mmHg 51%
    02:00 +27°C° 0 mm 2 mps 739 mmHg 55%
    03:00 +26°C° 0 mm 2 mps 739 mmHg 57%
    04:00 +26°C° 0 mm 2 mps 739 mmHg 59%
    05:00 +26°C° 0 mm 2 mps 739 mmHg 61%
    06:00 +27°C° 0 mm 3 mps 739 mmHg 56%
    07:00 +29°C° 0 mm 3 mps 740 mmHg 52%
    08:00 +32°C° 0 mm 4 mps 740 mmHg 47%
    09:00 +34°C° 0 mm 4 mps 739 mmHg 43%
    10:00 +36°C° 0 mm 5 mps 739 mmHg 39%
    11:00 +39°C° 0 mm 5 mps 739 mmHg 35%
    12:00 +40°C° 0 mm 5 mps 738 mmHg 32%
    13:00 +41°C° 0 mm 4 mps 737 mmHg 30%
    14:00 +42°C° 0 mm 4 mps 737 mmHg 27%
    15:00 +42°C° 0 mm 4 mps 736 mmHg 27%
    16:00 +42°C° 0 mm 5 mps 736 mmHg 28%
    17:00 +42°C° 0 mm 5 mps 735 mmHg 28%
    18:00 +40°C° 0 mm 5 mps 735 mmHg 33%
    19:00 +36°C° 0 mm 4 mps 736 mmHg 38%
    20:00 +34°C° 0 mm 4 mps 736 mmHg 42%
    21:00 +34°C° 0 mm 4 mps 737 mmHg 45%
    22:00 +33°C° 0 mm 4 mps 737 mmHg 47%
    23:00 +32°C° 0 mm 4 mps 737 mmHg 50%

    2 February, Sunday

    Time Temperature Precipitation Wind Pressure Humidity
    00:00 +32°C° 0 mm 4 mps 737 mmHg 51%
    01:00 +30°C° 0 mm 4 mps 737 mmHg 52%
    02:00 +30°C° 0 mm 3 mps 737 mmHg 53%
    03:00 +29°C° 0 mm 3 mps 737 mmHg 53%
    04:00 +29°C° 0 mm 3 mps 737 mmHg 53%
    05:00 +28°C° 0 mm 3 mps 737 mmHg 53%
    06:00 +30°C° 0 mm 3 mps 737 mmHg 50%
    07:00 +32°C° 0 mm 4 mps 738 mmHg 47%
    08:00 +33°C° 0 mm 4 mps 738 mmHg 44%
    09:00 +36°C° 0 mm 4 mps 738 mmHg 40%
    10:00 +38°C° 0 mm 4 mps 738 mmHg 36%
    11:00 +41°C° 0 mm 4 mps 738 mmHg 33%
    12:00 +42°C° 0 mm 4 mps 738 mmHg 29%
    13:00 +44°C° 0 mm 4 mps 737 mmHg 26%
    14:00 +45°C° 0 mm 4 mps 737 mmHg 23%
    15:00 +45°C° 0 mm 5 mps 736 mmHg 23%
    16:00 +45°C° 0 mm 5 mps 736 mmHg 23%
    17:00 +45°C° 0 mm 5 mps 735 mmHg 23%
    18:00 +42°C° 0 mm 5 mps 736 mmHg 28%
    19:00 +40°C° 0 mm 5 mps 736 mmHg 33%
    20:00 +37°C° 0 mm 5 mps 737 mmHg 38%
    21:00 +36°C° 0 mm 5 mps 737 mmHg 40%
    22:00 +35°C° 0 mm 4 mps 737 mmHg 43%
    23:00 +34°C° 0 mm 4 mps 738 mmHg 45%

    3 February, Monday

    Time Temperature Precipitation Wind Pressure Humidity
    00:00 +33°C° 0 mm 4 mps 738 mmHg 47%
    01:00 +33°C° 0 mm 3 mps 737 mmHg 49%
    02:00 +31°C° 0 mm 3 mps 737 mmHg 51%
    03:00 +31°C° 0 mm 3 mps 737 mmHg 54%
    04:00 +30°C° 0 mm 3 mps 737 mmHg 56%
    05:00 +30°C° 0 mm 3 mps 737 mmHg 59%
    06:00 +31°C° 0 mm 3 mps 737 mmHg 56%
    07:00 +33°C° 0 mm 4 mps 738 mmHg 54%
    08:00 +35°C° 0 mm 5 mps 738 mmHg 52%
    09:00 +37°C° 0 mm 5 mps 738 mmHg 46%
    10:00 +40°C° 0 mm 5 mps 738 mmHg 40%
    11:00 +42°C° 0 mm 5 mps 737 mmHg 35%
    12:00 +44°C° 0 mm 6 mps 737 mmHg 32%
    13:00 +45°C° 0 mm 6 mps 736 mmHg 30%
    14:00 +46°C° 0 mm 6 mps 735 mmHg 27%
    15:00 +45°C° 0 mm 6 mps 735 mmHg 30%
    16:00 +44°C° 0 mm 6 mps 734 mmHg 32%
    17:00 +42°C° 0 mm 6 mps 733 mmHg 34%
    18:00 +41°C° 0 mm 6 mps 734 mmHg 37%
    19:00 +40°C° 0 mm 6 mps 734 mmHg 40%
    20:00 +37°C° 0 mm 5 mps 734 mmHg 43%
    21:00 +37°C° 0 mm 5 mps 734 mmHg 45%
    22:00 +36°C° 0 mm 5 mps 735 mmHg 46%
    23:00 +36°C° 0 mm 5 mps 735 mmHg 48%
    Show more